sat.trackr.live / text

‹ back to catalog

ONEWEB-0385

NORAD 49311 · 2021-090AJ

PAYLOAD ACTIVE UNKNOWN

§ Identity

Operator
Country
UK
Launch date
2021-10-14
Launch site
VOSTO
Launch vehicle
Mass (kg)
RCS (m²)

Purposes: comms

External: N2YO · Heavens-Above · Gunter

§ Orbital elements

Epoch: 2026-05-25T02:36:30.205152Z

Period
109.03 min
Inclination
87.9174°
Eccentricity
0.0002079
Mean motion
13.20766889 rev/d
Perigee alt
1,180.2 km
Apogee alt
1,183.4 km
Semi-major
7,559.9 km
B*
5.0794e-5
RAAN
279.0413°
Arg perigee
97.0196°
Mean anomaly
263.1173°
Rev number
22,675

§ Raw data

ONEWEB-03851 49311U 21090AJ  26145.10868293  .00000034  00000+0  50794-4 0  99902 49311  87.9174 279.0413 0002079  97.0196 263.1173 13.20766889226757

JSON: /api/v1/satellites/49311 · /tle

For live sub-satellite position, see the globe view (requires WebGL).

§ Visibility from observer

Set your observer location to see the next 7 days of passes ≥ 10°. The values pass through the URL so the page stays shareable.

No JS? Fill the form by hand. The geolocation button needs JavaScript.